Weather History for Quincy, IL

Change the Weather History Date:

Wednesday, August 28, 2013

  Actual Average Record
Temperature  
Mean Temperature 84 °F 73 °F  
Max Temperature 98 °F 83 °F 101 °F (1984)
Min Temperature 70 °F 63 °F 42 °F (1986)
Degree Days  
Heating Degree Days 0 0  
Month to date heating degree days 2 0  
Since 1 June heating degree days 18 16  
Since 1 July heating degree days 6 0  
Cooling Degree Days 19 8  
Month to date cooling degree days 263 274  
Year to date cooling degree days 944 930  
Since 1 June cooling degree days 832 844  
Growing Degree Days 34 (Base 50)    
Moisture  
Dew Point 65 °F    
Average Humidity 56    
Maximum Humidity 79    
Minimum Humidity 33    
Precipitation  
Precipitation 0.00 in 0.11 in 2.43 in (1977)
Month to date precipitation 0.01 3.28  
Year to date precipitation 28.10 25.40  
Sea Level Pressure  
Sea Level Pressure 29.97 in    
Wind  
Wind Speed 7 mph (WSW)    
Max Wind Speed 16 mph    
Max Gust Speed 23 mph    
Visibility 10 miles    
Events      
T = Trace of Precipitation, MM = Missing Value Source: NWS Daily Summary

Daily Weather History Graph

Daily Weather History Graph

Search for Another Location

Airport:

Trip Planner

Search our weather history database for the weather conditions in past years. The results will help you decide how hot, cold, wet, or windy it might be!

Date:

Astronomy

Aug. 28, 2013 Rise Set
Actual Time 6:29 AM CDT 7:41 PM CDT
Civil Twilight 6:01 AM CDT 8:09 PM CDT
Nautical Twilight 5:27 AM CDT 8:43 PM CDT
Astronomical Twilight 4:52 AM CDT 9:18 PM CDT
Moon No Moon Rise 2:19 PM CDT (8/28)
Length of Visible Light 14h 08m
Length of Day
13h 12m
Waning Gibbous, 47% of the Moon is Illuminated
Aug 28
Waning Gibbous
Sep 5
New
Sep 12
First Quarter
Sep 19
Full
Sep 26
Last Quarter

Hourly Weather History & Observations

Time (CDT) Temp. Heat Index Dew Point Humidity Pressure Visibility Wind Dir Wind Speed Gust Speed Precip Events Conditions
12:54 AM 75.0 °F - 62.1 °F 64% 29.96 in 10.0 mi SSW 8.1 mph - N/A   Clear
1:54 AM 75.9 °F - 62.1 °F 62% 29.96 in 10.0 mi SW 6.9 mph - N/A   Clear
2:54 AM 73.0 °F - 62.1 °F 68% 29.95 in 10.0 mi SW 5.8 mph - N/A   Clear
3:54 AM 73.9 °F - 63.0 °F 68% 29.95 in 10.0 mi WSW 6.9 mph - N/A   Clear
4:54 AM 73.0 °F - 63.0 °F 71% 29.96 in 10.0 mi WSW 5.8 mph - N/A   Clear
5:54 AM 72.0 °F - 63.0 °F 73% 29.97 in 10.0 mi WSW 5.8 mph - N/A   Clear
6:54 AM 71.1 °F - 64.0 °F 78% 29.99 in 10.0 mi SW 5.8 mph - N/A   Clear
7:54 AM 77.0 °F - 64.9 °F 66% 30.00 in 10.0 mi West 9.2 mph - N/A   Clear
8:54 AM 81.0 °F 82.7 °F 64.9 °F 58% 30.00 in 10.0 mi West 9.2 mph - N/A   Clear
9:54 AM 84.9 °F 87.1 °F 66.0 °F 53% 30.01 in 10.0 mi West 9.2 mph - N/A   Clear
10:54 AM 89.1 °F 92.1 °F 66.9 °F 48% 30.00 in 10.0 mi West 12.7 mph - N/A   Clear
11:54 AM 91.9 °F 95.4 °F 66.9 °F 44% 29.99 in 10.0 mi West 10.4 mph - N/A   Clear
12:54 PM 93.9 °F 97.0 °F 66.0 °F 40% 29.98 in 10.0 mi West 15.0 mph 20.7 mph N/A   Clear
1:54 PM 96.1 °F 98.8 °F 64.9 °F 36% 29.97 in 10.0 mi West 10.4 mph - N/A   Clear
2:54 PM 97.0 °F 99.3 °F 64.0 °F 34% 29.95 in 10.0 mi NW 9.2 mph - N/A   Clear
3:54 PM 97.0 °F 98.3 °F 63.0 °F 32% 29.95 in 10.0 mi West 5.8 mph - N/A   Clear
4:54 PM 97.0 °F 98.3 °F 63.0 °F 32% 29.94 in 10.0 mi Variable 5.8 mph - N/A   Clear
5:54 PM 93.9 °F 97.0 °F 66.0 °F 40% 29.94 in 10.0 mi SSW 10.4 mph - N/A   Clear
6:54 PM 91.0 °F 93.8 °F 66.0 °F 44% 29.95 in 10.0 mi SW 5.8 mph - N/A   Clear
7:54 PM 84.9 °F 87.1 °F 66.0 °F 53% 29.96 in 10.0 mi SSW 4.6 mph - N/A   Clear
8:54 PM 82.0 °F 84.1 °F 66.0 °F 58% 29.98 in 10.0 mi SW 3.5 mph - N/A   Clear
9:54 PM 80.1 °F 82.3 °F 66.9 °F 64% 29.98 in 10.0 mi SW 4.6 mph - N/A   Clear
10:54 PM 78.1 °F - 66.0 °F 66% 29.99 in 10.0 mi WSW 4.6 mph - N/A   Clear
11:54 PM 75.9 °F - 66.0 °F 71% 29.99 in 10.0 mi SW 5.8 mph - N/A   Clear